Regional Weather Roundup
Issued by NWS

Home | Current Version | Previous Version | Text Only | Print | Product List | Glossary On
Versions: 1 2 3 4 5 6 7 8 9 10 11 12 13 14 15 16 17 18 19 20 21 22 23 24 25 26 27
000
ASUS45 KBOI 080410
RWRID

IDAHO REGIONAL WEATHER ROUNDUP
NATIONAL WEATHER SERVICE BOISE ID
900 PM MST WED DEC 07 2016

NOTE: "FAIR" INDICATES FEW OR NO CLOUDS BELOW 12000 FEET
WITH NO SIGNIFICANT WEATHER AND/OR OBSTRUCTIONS TO VISIBILITY

IDZ012-014-080500-
SOUTHWEST IDAHO


CITY           SKY/WX    TMP DP  RH WIND       PRES   REMARKS
BOISE          PTCLDY    21  13  71 S9        30.36S WCI  11
CALDWELL       PTCLDY    14  11  87 E7        30.39F WCI   4
MOUNTAIN HOME  PTCLDY    15  13  91 SE7       30.36F WCI   5
$$

IDZ016-017-080500-
SOUTHCENTRAL IDAHO


CITY           SKY/WX    TMP DP  RH WIND       PRES   REMARKS
BURLEY         CLEAR     10   8  92 E6        30.31F WCI   0
JEROME         CLEAR     14   9  80 NE13      30.32S WCI   0
TWIN FALLS     CLEAR     11   8  88 E9        30.31R WCI  -2
$$

IDZ019>023-080500-
SOUTHEAST IDAHO


CITY           SKY/WX    TMP DP  RH WIND       PRES   REMARKS
IDAHO FALLS    CLEAR      6   1  80 N6        30.35R WCI  -4
POCATELLO      CLEAR      1  -2  87 CALM      30.35S
REXBURG        PTCLDY     1  -4  79 NE5       30.34S WCI  -9
$$

IDZ006-010-011-018-031-032-080500-
CENTRAL IDAHO MOUNTAINS


CITY           SKY/WX    TMP DP  RH WIND       PRES   REMARKS
MCCALL         CLEAR      0  -5  79 CALM      30.21S
HAILEY         CLEAR      5   1  85 NW6       30.29F WCI  -6
STANLEY          N/A    -10 -16  74 CALM      30.20R
SALMON         PTCLDY     3   0  85 CALM      30.35R
CHALLIS        CLEAR      6   0  76 W5        30.28R WCI  -3
$$

IDZ002-004-006-007-026-080500-
NORTHERN IDAHO


CITY           SKY/WX    TMP DP  RH WIND       PRES   REMARKS
LEWISTON       CLEAR     18  13  80 SE5       30.44S WCI  11
LOWELL           N/A     23  19  85 CALM      30.48S
COEUR D`ALENE  CLEAR     17   8  67 N12       30.43F WCI   4
MULLAN PASS    PTCLDY     2  -2  83 SE9G18    30.17S WCI -13
$$




USA.gov is the U.S. government's official web portal to all federal, state and local government web resources and services.